Regional Weather Roundup
Issued by NWS

Home | Current Version | Previous Version | Text Only | Print | Product List | Glossary On
Versions: 1 2 3 4 5 6 7 8 9 10 11 12 13 14 15 16 17 18 19 20 21 22 23 24 25 26 27 28 29 30 31 32 33 34 35 36 37 38 39 40 41 42 43 44 45 46 47 48 49 50
000
ASUS42 KKEY 262010
RWRKEY

FLORIDA REGIONAL WEATHER ROUNDUP FOR THE FLORIDA KEYS
NATIONAL WEATHER SERVICE KEY WEST FLORIDA
400 PM EDT TUE SEP 26 2017

...SOUTH FLORIDA AND THE KEYS...

CITY           SKY/WX    TMP DP  RH WIND       PRES   REMARKS
FORT MYERS     SUNNY     92  76  59 W8        29.83F HX 104
SW REGIONAL AP MOSUNNY   92  70  48 CALM      29.83F HX  97
NAPLES         MOSUNNY   88  73  61 W10       29.85F HX  95
MIAMI          PTSUNNY   87  74  64 SE7       29.87F HX  95
WEST KENDALL   CLOUDY    86  73  65 SE9       29.86F HX  93
HOMESTEAD      CLOUDY    84  79  84 SE8       29.86F HX  96
MARATHON       CLOUDY    84  74  71 SE8       29.87F HX  91
KEY WEST INTL    N/A     84  75  74 SE7       29.87F HX  92

...INTERNATIONAL WEATHER...

CITY           SKY/WX    TMP DP  RH WIND       PRES   REMARKS
NASSAU BAHAMAS LGT RAIN  81  77  89 CALM      29.91F
CANCUN MEXICO  PTSUNNY   88  79  74 SE9       29.78F HX 102
COZUMEL MEXICO MOSUNNY   84  75  74 S8        29.76F HX  92

ADJACENT COASTAL WATERS...

STATION/POSITION TIME  SKY/WX   TEMP    WIND        PRES    WAVE
                                AIR SEA DIR/SP/G            HT/PER
                 (UTC)          (F)     (DEG/KT/KT) (MB)    (FT/S)
PULASKI SHOAL LI 2000            85     110/  3/  4 1011.8F
SAND KEY         1950            81                 1012.3F
LONG KEY         NOT AVBL
MOLASSES REEF    1900            81 85  200/  5/  6 1012.4F
FOWEY ROCKS      1900            81 85  160/ 17/ 18 1012.6F
Buoy 42097       1930               87                N/A     1/ 5

$$



USA.gov is the U.S. government's official web portal to all federal, state and local government web resources and services.